Location: Étouvelles
(49.5207°N, 3.5808°E)
Time: 15:46:49
(UTC+00:00)

MOS 1-B - Pass Details

Date: 03 February 2023
Orbit: 904 x 913 km, 99.4° (Epoch: 26 March)

Event Time Altitude Azimuth Distance (km) Brightness Sun altitude
Rises 18:14:08 0° 155° (SSE) 3,529 7.3 -14.8°
Reaches altitude 10° 18:16:32 10° 153° (SSE) 2,593 6.5 -15.2°
Maximum altitude 18:22:18 73° 70° (ENE) 959 4.3 -16.1°
Drops below altitude 10° 18:28:06 10° 347° (NNW) 2,615 6.8 -17.0°
Sets 18:30:32 0° 346° (NNW) 3,561 7.6 -17.4°
